[[{"header":{"parameterUnit":"m.s-1","parameterCategory":1,"la1":30.2991,"la2":30.254,"lo1":-89.0895,"lo2":-89.0444,"dx":0.0017,"dy":0.0017,"nx":28,"ny":28,"refTime":"2023-01-27T15:00:00:Z","depth":0,"parameterNumber":2,"parameterNumberName":"U-component_of_WINDS"},"data":[0,0,0,0,0,0,0,0,0,0,0,0,0,0,0,0,0,0,0,0,0,0,0,0,0,0,0,0,0,0,0,0,0,0,0,0,0,0,0,0,0,0,0,0,0,0,0,0,0,0,0,0,0,0,0,0,0,0,-6.0971,-6.0972,0,-6.109,-6.1091,-6.1092,-6.1087,-6.1085,-6.1083,-6.1082,-6.1201,-6.1205,-6.121,0,0,0,0,0,0,0,0,0,0,0,0,0,-6.0739,-6.0744,-6.0971,-6.0972,-6.0974,-6.1089,-6.1091,-6.1093,-6.1087,-6.1085,-6.1083,-6.1081,-6.1199,-6.1205,-6.1211,0,0,0,0,0,0,0,0,0,0,0,0,0,-6.0847,-6.0745,-6.097,-6.0985,-6.0987,-6.1089,-6.1091,-6.1093,-6.1087,-6.1085,-6.1082,-6.108,-6.1197,-6.1204,-6.1211,-6.1306,0,0,-6.1233,-6.1236,0,0,0,0,0,0,0,0,-6.0841,-6.0855,-6.0981,-6.0984,-6.0987,-6.1071,-6.1053,-6.1164,-6.1088,-6.1049,-6.1082,-6.1079,-6.1159,-6.1169,-6.1197,-6.1311,-6.1316,-6.1234,-6.1238,-6.1241,-6.1243,0,0,0,0,0,0,0,-6.0833,-6.085,-6.1018,-6.0983,-6.0987,-6.0986,-6.0998,-6.1074,-6.1117,-6.1052,-6.1052,-6.1067,-6.116,-6.119,-6.12,-6.1318,-6.1233,-6.124,-6.1244,-6.1247,-6.1517,-6.152,0,0,0,0,0,0,-6.0823,-6.0844,-6.1014,-6.1021,-6.0906,-6.0992,-6.1006,-6.1046,-6.1116,-6.1124,-6.1069,-6.1066,-6.1179,-6.1192,-6.1204,-6.1319,-6.1241,-6.1248,-6.1252,-6.1515,-6.1518,-6.1521,0,0,0,0,0,0,-6.0818,-6.0838,-6.1009,-6.0933,-6.0954,-6.0998,-6.1044,-6.105,-6.108,-6.1128,-6.1136,-6.1091,-6.1178,-6.1194,-6.1281,-6.1323,-6.1251,-6.1257,-6.1511,-6.1516,-6.152,-6.1549,0,0,0,0,0,0,-6.0811,-6.0836,-6.0872,-6.0934,-6.0959,-6.1084,-6.1047,-6.1054,-6.1092,-6.109,-6.1152,-6.1159,-6.1177,-6.127,-6.1288,-6.1332,-6.1263,-6.1507,-6.1513,-6.1518,-6.1545,-6.1554,-6.1562,0,0,0,0,0,-6.0803,-6.0875,-6.0874,-6.0894,-6.1004,-6.1086,-6.11,-6.112,-6.1096,-6.1132,-6.1164,-6.1157,-6.1317,-6.1279,-6.1299,-6.1345,-6.1505,-6.1511,-6.1518,-6.1541,-6.1552,-6.1562,0,0,0,0,0,0,-6.0815,-6.0883,-6.0883,-6.0976,-6.1026,-6.1085,-6.1131,-6.1131,-6.1188,-6.1183,-6.1205,-6.1219,-6.1306,-6.1335,-6.1292,-6.1442,-6.1408,-6.1418,-6.1418,-6.143,-6.1438,-6.1428,-6.1269,0,0,0,0,0,-6.0829,-6.089,-6.0946,-6.1024,-6.1049,-6.1086,-6.1122,-6.1134,-6.1185,-6.1206,-6.1244,-6.1294,-6.1355,-6.1395,-6.1454,-6.1551,-6.1564,-6.1593,-6.1602,-6.1609,-6.1616,-6.1671,-6.1684,-6.1543,-6.1543,-6.1543,0,0,-6.0857,-6.0902,-6.0939,-6.1027,-6.1067,-6.1129,-6.1103,-6.117,-6.1217,-6.1216,-6.1299,-6.133,-6.1388,-6.148,-6.1523,-6.1507,-6.166,-6.1617,-6.1622,-6.1626,-6.1679,-6.1692,-6.1704,-6.1547,-6.1546,-6.1546,0,0,-6.094,-6.0981,-6.105,-6.1091,-6.1153,-6.1178,-6.1195,-6.1255,-6.1276,-6.1361,-6.1362,-6.1419,-6.1524,-6.1565,-6.16,-6.1705,-6.17,-6.1724,-6.1768,-6.182,-6.1831,-6.1841,-6.1877,-6.189,-6.1732,-6.1732,-6.1732,0,-6.0967,-6.1061,-6.1085,-6.1153,-6.1192,-6.1198,-6.1268,-6.1307,-6.1384,-6.1411,-6.1393,-6.1527,-6.1566,-6.1668,-6.1694,-6.1723,-6.1743,-6.1714,-6.1828,-6.1838,-6.1848,-6.1883,-6.1896,-6.1735,-6.1734,-6.1734,-6.1734,0,-6.1091,-6.1157,-6.1206,-6.1282,-6.1327,-6.1396,-6.1431,-6.1474,-6.1484,-6.1511,-6.1599,-6.1647,-6.1717,-6.1743,-6.1752,-6.1848,-6.1836,-6.1824,-6.1789,-6.1863,-6.1896,-6.191,-6.1738,-6.1737,-6.1736,-6.1736,0,0,-6.1179,-6.1271,-6.1288,-6.1324,-6.1394,-6.1445,-6.1516,-6.1586,-6.1622,-6.1677,-6.1736,-6.1828,-6.1817,-6.1857,-6.1872,-6.1918,-6.1998,-6.19,-6.1902,-6.1915,-6.2106,-6.2112,-6.2127,-6.1998,-6.2,-6.2002,-6.21,0,-6.1268,-6.1392,-6.1418,-6.1526,-6.1587,-6.1596,-6.1658,-6.1708,-6.1737,-6.1794,-6.1826,-6.189,-6.1872,-6.1896,-6.1943,-6.1978,-6.2036,-6.1972,-6.2051,-6.2054,-6.2033,-6.2145,-6.2151,-6.2241,-6.2113,-6.2116,-6.2117,0,-6.1386,-6.1445,-6.1559,-6.1624,-6.1651,-6.1706,-6.1773,-6.1828,-6.1886,-6.1904,-6.1951,-6.1961,-6.2036,-6.2002,-6.2104,-6.206,-6.2096,-6.2118,-6.2122,-6.2127,-6.2087,-6.215,-6.227,-6.2282,-6.2138,-6.2136,-6.2135,0,-6.1436,-6.1545,-6.1628,-6.1658,-6.1736,-6.1775,-6.1809,-6.1865,-6.1906,-6.1966,-6.1993,-6.206,-6.2096,-6.2148,-6.2177,-6.215,-6.2278,-6.2246,-6.2294,-6.2293,-6.2316,-6.2314,-6.2441,-6.2345,-6.2344,-6.2344,-6.2344,0,-6.153,-6.1599,-6.1652,-6.1702,-6.1781,-6.1811,-6.1888,-6.1922,-6.1973,-6.2031,-6.2044,-6.2097,-6.2134,-6.2194,-6.2217,-6.2299,-6.2315,-6.2332,-6.2336,-6.2328,-6.2326,-6.2348,-6.2342,-6.2348,-6.2347,-6.2346,-6.2346,0,-6.1596,-6.1635,-6.1726,-6.1794,-6.1813,-6.1868,-6.1926,-6.1976,-6.2008,-6.208,-6.2099,-6.2148,-6.2219,-6.2255,-6.2343,-6.2359,-6.245,-6.2453,-6.243,-6.2431,-6.2476,-6.2471,-6.2619,-6.264,-6.2533,-6.2534,-6.2535,0,-6.1652,-6.1705,-6.1781,-6.1821,-6.1857,-6.1921,-6.1964,-6.1998,-6.2042,-6.2115,-6.2156,-6.2229,-6.2288,-6.2401,-6.2444,-6.2512,-6.2515,-6.2563,-6.2525,-6.2516,-6.2513,-6.2508,-6.2513,-6.2568,-6.2569,-6.2569,-6.257,0,-6.1745,-6.1763,-6.1824,-6.1894,-6.1946,-6.2002,-6.2057,-6.209,-6.2133,-6.2183,-6.2256,-6.2302,-6.2394,-6.2465,-6.2538,-6.2573,-6.2579,-6.2583,-6.2597,-6.2587,-6.2571,-6.2579,-6.2445,-6.2578,-6.2577,-6.2576,-6.2576,-6.2576,-6.1806,-6.1855,-6.1916,-6.1986,-6.2032,-6.2084,-6.2135,-6.2175,-6.2237,-6.2314,-6.2332,-6.2409,-6.247,-6.2567,-6.2606,-6.2668,-6.2657,-6.2678,-6.2683,-6.2686,-6.2688,-6.2565,-6.2681,-6.2681,-6.2681,-6.2681,-6.2681,0,-6.1899,-6.194,-6.2004,-6.2082,-6.2137,-6.2141,-6.2204,-6.2249,-6.2318,-6.2374,-6.2433,-6.2519,-6.259,-6.2641,-6.2713,-6.2752,-6.2757,-6.277,-6.2765,-6.2773,-6.2694,-6.2673,-6.2765,-6.2765,-6.2765,-6.2765,-6.2765,-6.2765,-6.1953,-6.2035,-6.2061,-6.2168,-6.2209,-6.2286,-6.2321,-6.237,-6.2415,-6.2511,-6.257,-6.2604,-6.2659,-6.2735,-6.2801,-6.2814,-6.2839,-6.2851,-6.2864,-6.2788,-6.2779,-6.277,-6.2751,-6.2857,-6.2857,-6.2939,-6.2939,-6.294]},{"header":{"parameterUnit":"m.s-1","parameterCategory":1,"la1":30.2991,"la2":30.254,"lo1":-89.0895,"lo2":-89.0444,"dx":0.0017,"dy":0.0017,"nx":28,"ny":28,"refTime":"2023-01-27T15:00:00:Z","depth":0,"parameterNumber":3,"parameterNumberName":"V-component_of_WINDS"},"data":[0,0,0,0,0,0,0,0,0,0,0,0,0,0,0,0,0,0,0,0,0,0,0,0,0,0,0,0,0,0,0,0,0,0,0,0,0,0,0,0,0,0,0,0,0,0,0,0,0,0,0,0,0,0,0,0,0,0,3.12,3.1201,0,3.1292,3.1293,3.1294,3.1391,3.1392,3.1394,3.1395,3.1485,3.1486,3.1487,0,0,0,0,0,0,0,0,0,0,0,0,0,3.1108,3.1109,3.12,3.1202,3.1203,3.1292,3.1293,3.1294,3.1391,3.1392,3.1394,3.1396,3.1484,3.1485,3.1487,0,0,0,0,0,0,0,0,0,0,0,0,0,3.1169,3.111,3.12,3.1262,3.1268,3.1292,3.1293,3.1295,3.139,3.1392,3.1395,3.1396,3.1484,3.1485,3.1487,3.1456,0,0,3.1492,3.1493,0,0,0,0,0,0,0,0,3.1165,3.1172,3.1251,3.1257,3.1265,3.1332,3.1294,3.1349,3.139,3.1344,3.1395,3.1397,3.1432,3.1438,3.1451,3.146,3.1464,3.1492,3.1493,3.1494,3.1494,0,0,0,0,0,0,0,3.1161,3.1168,3.1237,3.1252,3.1261,3.1284,3.1295,3.1304,3.1375,3.1348,3.1355,3.1365,3.1436,3.1449,3.1453,3.1465,3.1492,3.1494,3.1495,3.1495,3.1459,3.1457,0,0,0,0,0,0,3.1148,3.1164,3.1234,3.1239,3.1219,3.1284,3.1297,3.1308,3.1375,3.1388,3.1363,3.1369,3.1445,3.1451,3.1457,3.1428,3.1494,3.1495,3.1496,3.1461,3.1459,3.1456,0,0,0,0,0,0,3.1145,3.1153,3.123,3.1204,3.1216,3.1284,3.1296,3.1309,3.1322,3.1387,3.14,3.1363,3.1447,3.1454,3.1457,3.1432,3.1496,3.1498,3.1463,3.146,3.1457,3.1368,0,0,0,0,0,0,3.1142,3.1151,3.114,3.1203,3.1217,3.1228,3.1295,3.1309,3.1325,3.1334,3.139,3.1402,3.1449,3.1454,3.1458,3.1436,3.1499,3.1466,3.1462,3.1458,3.1374,3.1363,3.1353,0,0,0,0,0,3.1138,3.111,3.1139,3.1147,3.1204,3.1227,3.1235,3.1291,3.1323,3.1313,3.1355,3.14,3.1434,3.1453,3.1459,3.1437,3.1467,3.1463,3.1459,3.1378,3.1365,3.1353,0,0,0,0,0,0,3.104,3.1119,3.1152,3.1143,3.1178,3.1243,3.1231,3.1274,3.1299,3.1306,3.1374,3.1386,3.1381,3.1409,3.1429,3.1413,3.1458,3.1454,3.1394,3.1382,3.1372,3.1365,3.15,0,0,0,0,0,3.1017,3.1029,3.1098,3.1083,3.1099,3.1162,3.1174,3.1215,3.1253,3.1267,3.131,3.1344,3.1363,3.1374,3.1395,3.1378,3.1393,3.1366,3.1356,3.1347,3.1343,3.134,3.133,3.1442,3.1442,3.1442,0,0,3.097,3.1015,3.1018,3.1064,3.1096,3.1108,3.1173,3.1182,3.1192,3.1268,3.1274,3.1307,3.135,3.1343,3.1343,3.1367,3.1316,3.1341,3.1334,3.1335,3.1335,3.1324,3.1314,3.1439,3.1439,3.144,0,0,3.089,3.0925,3.0918,3.095,3.0998,3.1041,3.1039,3.1099,3.1124,3.1132,3.1191,3.1203,3.1233,3.1263,3.1282,3.1218,3.1261,3.1223,3.1169,3.1165,3.1156,3.1149,3.1129,3.112,3.1219,3.1219,3.1219,0,3.0825,3.0846,3.0909,3.0915,3.0935,3.1008,3.1002,3.1029,3.108,3.1093,3.1119,3.1163,3.1196,3.12,3.1185,3.1196,3.1198,3.1217,3.1153,3.1146,3.114,3.1121,3.1113,3.1214,3.1214,3.1215,3.1215,0,3.0765,3.0778,3.0767,3.0819,3.0837,3.0837,3.09,3.0911,3.0951,3.0991,3.1,3.1044,3.1076,3.108,3.1117,3.109,3.1104,3.114,3.1187,3.1123,3.1107,3.11,3.1207,3.1209,3.121,3.1211,0,0,3.0623,3.0713,3.0708,3.0734,3.0794,3.0806,3.081,3.0844,3.0854,3.0887,3.0894,3.092,3.0956,3.0978,3.102,3.1016,3.0966,3.1054,3.1056,3.1038,3.0941,3.0914,3.0904,3.0995,3.0994,3.0993,3.0938,0,3.0556,3.057,3.0628,3.0624,3.0639,3.0711,3.0715,3.0752,3.0791,3.0809,3.0851,3.087,3.0914,3.0929,3.0928,3.0972,3.0948,3.0977,3.1003,3.1003,3.0991,3.0896,3.0866,3.0812,3.0932,3.0931,3.093,0,3.0478,3.0511,3.0509,3.0573,3.0582,3.0584,3.0623,3.0639,3.0684,3.0712,3.0738,3.0787,3.0796,3.084,3.0855,3.0874,3.0888,3.0911,3.0911,3.0916,3.0963,3.09,3.0796,3.0788,3.092,3.0921,3.0922,0,3.0379,3.0422,3.0428,3.0447,3.0521,3.0522,3.0552,3.06,3.0618,3.0651,3.0664,3.0696,3.0714,3.0739,3.0795,3.0821,3.0805,3.0852,3.083,3.0828,3.0823,3.0822,3.0721,3.0829,3.083,3.083,3.083,0,3.0298,3.0294,3.0384,3.0388,3.0387,3.0455,3.0452,3.0489,3.0532,3.0544,3.0607,3.0617,3.069,3.0709,3.0753,3.0761,3.0767,3.0791,3.0803,3.0787,3.0784,3.0797,3.0803,3.0828,3.0828,3.0828,3.0829,0,3.0186,3.0246,3.0257,3.0328,3.0345,3.0342,3.0402,3.0409,3.0452,3.0468,3.0475,3.0543,3.0569,3.0628,3.0668,3.0699,3.0695,3.0716,3.0681,3.0688,3.0663,3.0665,3.0568,3.0559,3.0671,3.067,3.0669,0,3.0131,3.0131,3.0202,3.0216,3.0245,3.0266,3.0286,3.0353,3.0371,3.0425,3.0426,3.0457,3.0486,3.0524,3.0577,3.0609,3.0632,3.0596,3.0637,3.0621,3.0634,3.0634,3.0635,3.0586,3.0585,3.0584,3.0583,0,3.0028,3.0059,3.0086,3.0124,3.0147,3.0179,3.0215,3.0223,3.0299,3.0316,3.0345,3.0368,3.0412,3.0442,3.0484,3.0515,3.0562,3.0569,3.0566,3.055,3.053,3.0543,3.0657,3.0571,3.0572,3.0573,3.0574,3.0574,2.9945,2.9949,3.0001,3.003,3.0065,3.0099,3.0109,3.0156,3.0181,3.0224,3.0262,3.0287,3.0336,3.0396,3.0425,3.0446,3.0469,3.0464,3.0463,3.0461,3.0455,3.0526,3.0453,3.0454,3.0454,3.0455,3.0455,0,2.9847,2.9885,2.9911,2.9961,2.9984,3.0028,3.0072,3.0088,3.011,3.0152,3.018,3.0215,3.0246,3.0303,3.0339,3.0345,3.0368,3.0353,3.0353,3.036,3.0431,3.0431,3.0334,3.0334,3.0334,3.0334,3.0334,3.0334,2.9799,2.981,2.9847,2.9877,2.9915,2.9942,2.9964,2.9995,3.003,3.0066,3.0093,3.013,3.0179,3.022,3.0251,3.0267,3.0278,3.0256,3.0279,3.0344,3.0355,3.0366,3.0367,3.0258,3.0258,3.0208,3.0207,3.0207]}]]